Regional Weather Roundup
Issued by NWS

Home | Current Version | Previous Version | Graphics & Text | Print | Product List | Glossary On
Versions: 1 2 3 4 5 6 7 8 9 10 11 12 13 14 15 16 17 18 19 20 21 22 23 24 25 26 27 28 29 30 31 32 33 34 35 36 37 38 39 40 41 42 43 44 45 46 47 48 49 50
000
ASUS43 KBIS 260459
RWRND

NORTH DAKOTA REGIONAL WEATHER ROUNDUP
NATIONAL WEATHER SERVICE BISMARCK ND
1100 PM CST THU DEC 25 2014

NOTE: "FAIR" INDICATES FEW OR NO CLOUDS BELOW 12,000 FEET WITH NO
SIGNIFICANT WEATHER AND/OR OBSTRUCTIONS TO VISIBILITY.


NDZ001>003-009>011-017-260600-
NORTHWEST NORTH DAKOTA

CITY           SKY/WX    TMP DP  RH WIND       PRES   REMARKS
WILLISTON      CLOUDY    17  11  77 NW8       30.09R WCI   7
MINOT          CLOUDY    17  11  77 W18       30.05R WCI   1
$$

NDZ018>021-031>035-040>046-260600-
SOUTHWEST NORTH DAKOTA

CITY           SKY/WX    TMP DP  RH WIND       PRES   REMARKS
BISMARCK       CLOUDY    25  21  85 N9        30.03R WCI  15
DICKINSON      CLOUDY    21  15  78 NW13      30.00R WCI   9
GARRISON         N/A     22  17  81 NW17      30.03R WCI   8
HETTINGER ARPT CLOUDY    22  16  78 NW12      30.00R WCI  10
$$

NDZ004>008-012>016-024-026-027-054-260600-
NORTHEAST NORTH DAKOTA

CITY           SKY/WX    TMP DP  RH WIND       PRES   REMARKS
GRAND FORKS    CLOUDY    26  21  81 N8        30.01R WCI  18
GRND FRKS AFB  CLOUDY    25  23  93 N7        30.02R WCI  17
DEVILS LAKE    CLOUDY    21  18  86 N10       30.00R WCI  10
$$

NDZ022-023-025-028>030-036>039-047>053-260600-
SOUTHEAST NORTH DAKOTA

CITY           SKY/WX    TMP DP  RH WIND       PRES   REMARKS
FARGO          CLOUDY    27  22  81 N13       29.99R WCI  16
$$



USA.gov is the U.S. government's official web portal to all federal, state and local government web resources and services.